Content
SEND FEEDBACK

Daily
Averages
Monthly
Summary
Philippines

CAVITE, PHILIPPINES


Home > Asia > Philippines
Elevation: 13 feet     Latitude: 14 30N     Longitude: 120 55E

WEATHER
 
SELECT A DAY
Number of Records: 172,573;   Date Range: 7/1/96 - 8/12/14
 
SHARE

PRINT THIS DATA

[ ← Previous Day ]
WEATHER ALMANAC - JULY 11, 2013
[ Next Day → ]
[ °C ]   °F
Weather ElementAverageHighLow
Temperature83.6 °F88 °F (2:00 pm)78 °F (5:00 am)
Dewpoint76.4 °F78.8 °F (3:00 am)71.6 °F (7:00 pm)
Humidity78.3 %100 % (3:00 am)53 % (2:00 pm)
Barometer28.78 in29.78 in (8:00 am) (7:00 pm)
Wind Speed5.8 mph15 mph (4:00 pm)
Weather ElementAverage
Visibility6 mi
Wind DirectionSSW (202.1 °)

Weather ElementTotal
Precipitation---
Cooling Degree Days18 (Base 65)
Growing Degree Days33 (Base 50)
Averaged from 31 records on July 11, 2013
WEATHER CONDITIONS BREAKOUT
WIND DIRECTION BREAKOUT
WEATHER BY HOUR - JULY 11, 2013
[ °C ]   °F
Local TimeTemperatureDewpointHumidityBarometerVisibilityWind DirectionWind SpeedGust SpeedPrecipitationEventsConditions
1:00 AM78.8 °F77.0 °F94 %29.77 in6.2 miWSW (240°)3.5 mphMostly Cloudy
2:00 AM79.0 °F78.0 °F95 %29.76 in6.0 miCalmHaze
2:00 AM78.8 °F77.0 °F94 %29.74 in6.2 miCalmMostly Cloudy
3:00 AM78.8 °F78.8 °F100 %29.74 in6.2 miCalmScattered Clouds
4:00 AM78.8 °F78.8 °F100 %29.74 in5.6 miCalmScattered Clouds
5:00 AM78.0 °F78.0 °F100 %29.75 in6.0 miNE (40°)2.2 mphHaze
5:00 AM78.8 °F78.8 °F100 %29.74 in5.6 miVariable1.2 mphScattered Clouds
6:00 AM78.8 °F78.8 °F100 %29.74 in5.0 miVariable1.2 mphScattered Clouds
7:00 AM80.6 °F77.0 °F89 %29.77 in5.0 miVariable2.3 mphPartly Cloudy
8:00 AM83.0 °F76.0 °F74 %29.78 in6.0 miNNW (340°)4.5 mphHaze
8:00 AM82.4 °F77.0 °F84 %29.77 in6.2 miNNW (340°)3.5 mphMostly Cloudy
9:00 AM84.2 °F75.2 °F74 %29.77 in6.2 miWest (270°)8.1 mphMostly Cloudy
10:00 AM86.0 °F75.2 °F70 %29.77 in6.2 miNW (310°)9.2 mphMostly Cloudy
11:00 AM87.0 °F77.0 °F64 %29.78 in6.0 miWNW (300°)8.9 mphHaze
11:00 AM86.0 °F77.0 °F74 %29.77 in6.2 miWNW (300°)9.2 mphPartly Cloudy
12:00 PM87.8 °F77.0 °F70 %29.74 in6.2 miWNW (300°)10.4 mphPartly Cloudy
1:00 PM87.8 °F75.2 °F66 %29.74 in6.2 miWest (280°)9.2 mphMostly Cloudy
2:00 PM88.0 °F73.0 °F53 %29.71 in6.0 miWest (260°)11.2 mphHaze
2:00 PM87.8 °F73.4 °F62 %6.2 miWest (260°)11.5 mphMostly Cloudy
3:00 PM87.8 °F75.2 °F66 %29.68 in6.2 miWest (260°)12.7 mphMostly Cloudy
4:00 PM87.8 °F75.2 °F66 %29.68 in6.2 miWSW (250°)15.0 mphMostly Cloudy
5:00 PM88.0 °F78.0 °F65 %29.70 in6.0 miWest (260°)13.4 mphHaze
5:00 PM87.8 °F77.0 °F70 %29.68 in6.2 miWest (260°)13.8 mphMostly Cloudy
6:00 PM84.2 °F75.2 °F74 %29.68 in6.2 miNNW (330°)8.1 mphMostly Cloudy
7:00 PM84.2 °F71.6 °F66 %29.74 in6.2 miNNW (330°)5.8 mphMostly Cloudy
8:00 PM84.0 °F77.0 °F73 %29.75 in6.0 miNW (310°)4.5 mphHaze
8:00 PM84.2 °F77.0 °F79 %29.74 in6.2 miNW (310°)4.6 mphScattered Clouds
9:00 PM84.2 °F77.0 °F79 %29.74 in6.2 miNW (310°)2.3 mphScattered Clouds
10:00 PM84.2 °F75.2 °F74 %29.74 in6.2 miCalmMostly Cloudy
11:00 PM82.0 °F76.0 °F78 %29.72 in6.0 miCalmHaze
11:00 PM84.2 °F75.2 °F74 %29.74 in6.2 miVariable2.3 mphScattered Clouds
Hourly data recorded from RPLL, located miles away from Cavite, Philippines







STORIES FROM OUR PARTNERS